DMSP 5D-2 F13 DEB, 40673

Orbit data source: Space-Track

DMSP 5D-2 F13 DEB, 40673 is space debris in SSO originally from a launch on Fri, 24 Mar 1995 UTC launched from the Air Force Western Test Range (AFWTR). Debris objects in space refer to the collection of defunct objects orbiting the Earth. Examples of debris include non-operational satellites, rocket bodies, and fragments generated from explosions, collisions, or faulty payload assembly.

Loading next visibility...
Identifier
40673, 1995-015FM
Orbit
SSO
Last TLE update
2 days ago
Origin
Manufacturer
Unknown
Mission
Spacecraft
Bus & Motor
Unknown
Mass
Unknown
Launch date (UTC)
1995-03-24 (30 years ago)
Launch vehicle
Unknown
Launch site
Air Force Western Test Range (AFWTR)
Object type
Payload
Rocket body
Debris
Shape & HBR
Unknown
Radar Cross Section
Small (<0.1 m²)

Expand to show TLE details & history

TLE from 2 days ago
0 DMSP 5D-2 F13 DEB
1 40673U 95015FM  25198.28797663  .00000303  00000-0  15604-3 0  9998
2 40673  98.7108 213.5661 0021907 276.5939  83.2745 14.22266913533128
Epoch: 2025-07-17T06:54Z
TLE epoch observation values (Epoch: 2025-07-17T06:54:41.18Z)
Latitude
-0.00005°
Longitude
174.53858°
Altitude
818.802 km
Speed
7.445 km/s
True Right ascension
14h 14m 15s
True Declination
0° 00' 00"
Sunlit
Object was in daylight at epoch
Visualization orbit readout
Latitude
23.92834°
Longitude
172.33343°
Altitude
826.593 km
Speed
7.439 km/s
Apparent Right ascension
17h 03m 58s
Apparent Declination
-20° 40' 42"
Sunlit
Object is in daylight
Visualization observer readout
Local Sidereal Time
12:20:23
Azimuth
117.862° SE
Elevation
0.474°
Doppler factor
1
Orbital elements
Apogee altitude
830.61 km
Perigee altitude
799.094 km
Semi-major axis
7,192.989 km
Eccentricity
0.00219
Inclination
98.7108°
RAAN
213.5661°
Arg. of periapsis
276.5939°
True anomaly
83.52389°
Mean anomaly
83.2745°
Eccentric anomaly
83.39919°
Mean motion
3.55778 °/min
Orbital period
101.19 mins
BSTAR
0.00015604
Loading maneuver chart data...
Loading SW <> Apogee altitude chart data...
|